This is the latest recevied weather packets stored in our database for station/object KC5DAQ-27. If no packets are shown the sender has not sent any weather packets the latest 10 day(s).
| Time | Temp. | Humidity | Pressure | Rain* | Wind** | Luminosity | Snow |
|---|---|---|---|---|---|---|---|
| 1778244004 | 18.89° C | 91% | 1004.3 hPa | 0 mm | - | 42 W/m² | - |
| 1778243942 | 18.89° C | 91% | 1004.2 hPa | 0 mm | - | 48 W/m² | - |
| 1778243883 | 18.89° C | 91% | 1004.3 hPa | 0 mm | - | 51 W/m² | - |
| 1778243824 | 18.89° C | 91% | 1004.2 hPa | 0 mm | - | 53 W/m² | - |
| 1778243764 | 18.89° C | 91% | 1004.1 hPa | 0 mm | - | 53 W/m² | - |
| 1778243703 | 18.89° C | 91% | 1004.2 hPa | 0 mm | - | 53 W/m² | - |
| 1778243644 | 18.89° C | 91% | 1004.2 hPa | 0 mm | - | 48 W/m² | - |
| 1778243583 | 18.89° C | 92% | 1004.3 hPa | 0 mm | - | 42 W/m² | - |
| 1778243523 | 18.89° C | 92% | 1004.3 hPa | 0 mm | - | 39 W/m² | - |
| 1778243462 | 18.89° C | 91% | 1004.5 hPa | 0 mm | - | 35 W/m² | - |
| 1778243404 | 18.89° C | 91% | 1004.6 hPa | 0 mm | - | 32 W/m² | - |
| 1778243342 | 18.89° C | 91% | 1004.6 hPa | 0 mm | - | 28 W/m² | - |
| 1778243282 | 18.89° C | 91% | 1004.7 hPa | 0 mm | - | 28 W/m² | - |
| 1778243223 | 18.89° C | 91% | 1004.6 hPa | 0 mm | - | 30 W/m² | - |
| 1778243163 | 18.89° C | 91% | 1004.6 hPa | 0 mm | - | 30 W/m² | - |
| 1778243105 | 18.89° C | 91% | 1004.6 hPa | 0 mm | - | 32 W/m² | - |
| 1778243044 | 18.89° C | 91% | 1004.6 hPa | 0 mm | - | 33 W/m² | - |
| 1778242983 | 18.89° C | 91% | 1004.5 hPa | 0 mm | - | 40 W/m² | - |
| 1778242923 | 18.89° C | 91% | 1004.4 hPa | 0 mm | - | 55 W/m² | - |
| 1778242863 | 18.89° C | 91% | 1004.4 hPa | 0 mm | - | 51 W/m² | - |
| 1778242805 | 18.89° C | 91% | 1004.4 hPa | 0 mm | - | 48 W/m² | - |
| 1778242743 | 18.89° C | 91% | 1004.5 hPa | 0 mm | - | 40 W/m² | - |
| 1778242683 | 18.89° C | 91% | 1004.4 hPa | 0 mm | - | 35 W/m² | - |
| 1778242624 | 18.89° C | 91% | 1004.3 hPa | 0 mm | - | 30 W/m² | - |
| 1778242562 | 18.89° C | 91% | 1004.4 hPa | 0 mm | - | 26 W/m² | - |
* Rain latest hour (hover to see other rain measurements)
** Current wind speed in m/s (hover to see current wind gust speed)